When you browse on this site, cookies collect data to enhance your experience and personalize the content and advertising you see.
Visit our Privacy Policy to learn more. By continuing to use the site, you agree to this use of cookies and data.

Meteo pe oră la Tyrgowishte

Astăzi, 6 Iulie, Luni

Timp Temperatura Precipitaţii Vânt Presiune Umiditate
00:00 +21°C° 0.1 mm 2 m/s 740 mmHg 84%
01:00 +21°C° 0.1 mm 2 m/s 740 mmHg 86%
02:00 +21°C° 0.1 mm 2 m/s 740 mmHg 88%
03:00 +20°C° 0 mm 2 m/s 740 mmHg 90%
04:00 +21°C° 0 mm 1 m/s 739 mmHg 91%
05:00 +21°C° 0 mm 1 m/s 739 mmHg 92%
06:00 +21°C° 0 mm 2 m/s 739 mmHg 88%
07:00 +24°C° 0 mm 2 m/s 739 mmHg 83%
08:00 +25°C° 0 mm 2 m/s 740 mmHg 78%
09:00 +27°C° 0.6 mm 3 m/s 739 mmHg 72%
10:00 +28°C° 0.6 mm 3 m/s 739 mmHg 66%
11:00 +30°C° 0.6 mm 4 m/s 739 mmHg 60%
12:00 +30°C° 0 mm 4 m/s 738 mmHg 58%
13:00 +32°C° 0 mm 4 m/s 738 mmHg 55%
14:00 +33°C° 0 mm 4 m/s 738 mmHg 53%
15:00 +31°C° 0 mm 3 m/s 738 mmHg 54%
16:00 +31°C° 0 mm 3 m/s 737 mmHg 56%
17:00 +31°C° 0 mm 3 m/s 737 mmHg 57%
18:00 +29°C° 0 mm 2 m/s 736 mmHg 62%
19:00 +27°C° 0 mm 1 m/s 736 mmHg 67%
20:00 +24°C° 0 mm 0 m/s 736 mmHg 72%
21:00 +25°C° 0 mm 1 m/s 736 mmHg 74%
22:00 +25°C° 0 mm 1 m/s 736 mmHg 76%
23:00 +24°C° 0 mm 1 m/s 736 mmHg 78%

Mâine, 7 Iulie, Marţi

Timp Temperatura Precipitaţii Vânt Presiune Umiditate
00:00 +23°C° 0 mm 1 m/s 736 mmHg 81%
01:00 +23°C° 0 mm 1 m/s 736 mmHg 84%
02:00 +22°C° 0 mm 1 m/s 736 mmHg 87%
03:00 +22°C° 0 mm 1 m/s 736 mmHg 88%
04:00 +22°C° 0 mm 1 m/s 735 mmHg 90%
05:00 +21°C° 0 mm 1 m/s 735 mmHg 91%
06:00 +23°C° 0 mm 2 m/s 736 mmHg 86%
07:00 +25°C° 0 mm 2 m/s 736 mmHg 81%
08:00 +26°C° 0 mm 3 m/s 737 mmHg 75%
09:00 +27°C° 0.7 mm 3 m/s 737 mmHg 72%
10:00 +28°C° 0.7 mm 4 m/s 737 mmHg 68%
11:00 +29°C° 0.7 mm 4 m/s 737 mmHg 64%
12:00 +29°C° 1.2 mm 5 m/s 737 mmHg 66%
13:00 +28°C° 1.2 mm 6 m/s 737 mmHg 69%
14:00 +27°C° 1.2 mm 6 m/s 737 mmHg 71%
15:00 +27°C° 0 mm 7 m/s 737 mmHg 68%
16:00 +27°C° 0 mm 7 m/s 737 mmHg 64%
17:00 +27°C° 0 mm 7 m/s 738 mmHg 61%
18:00 +24°C° 0 mm 7 m/s 738 mmHg 65%
19:00 +22°C° 0 mm 6 m/s 739 mmHg 69%
20:00 +20°C° 0 mm 5 m/s 740 mmHg 73%
21:00 +19°C° 0 mm 5 m/s 740 mmHg 74%
22:00 +18°C° 0 mm 4 m/s 741 mmHg 76%
23:00 +18°C° 0 mm 4 m/s 742 mmHg 77%

Poimâine, 8 Iulie, Miercuri

Timp Temperatura Precipitaţii Vânt Presiune Umiditate
00:00 +17°C° 0 mm 4 m/s 742 mmHg 79%
01:00 +17°C° 0 mm 4 m/s 742 mmHg 81%
02:00 +15°C° 0 mm 4 m/s 743 mmHg 83%
03:00 +16°C° 0 mm 3 m/s 743 mmHg 81%
04:00 +16°C° 0 mm 3 m/s 743 mmHg 79%
05:00 +14°C° 0 mm 3 m/s 744 mmHg 77%
06:00 +16°C° 0 mm 3 m/s 744 mmHg 73%
07:00 +17°C° 0 mm 4 m/s 745 mmHg 70%
08:00 +18°C° 0 mm 4 m/s 745 mmHg 67%
09:00 +19°C° 0 mm 4 m/s 745 mmHg 63%
10:00 +21°C° 0 mm 4 m/s 745 mmHg 60%
11:00 +22°C° 0 mm 4 m/s 745 mmHg 57%
12:00 +22°C° 0 mm 3 m/s 745 mmHg 56%
13:00 +24°C° 0 mm 3 m/s 745 mmHg 56%
14:00 +24°C° 0 mm 3 m/s 745 mmHg 56%
15:00 +24°C° 0 mm 3 m/s 745 mmHg 56%
16:00 +24°C° 0 mm 2 m/s 745 mmHg 56%
17:00 +24°C° 0 mm 2 m/s 745 mmHg 56%
18:00 +23°C° 0 mm 2 m/s 745 mmHg 62%
19:00 +21°C° 0 mm 1 m/s 745 mmHg 69%
20:00 +19°C° 0 mm 1 m/s 745 mmHg 75%
21:00 +19°C° 0 mm 1 m/s 745 mmHg 77%
22:00 +18°C° 0 mm 1 m/s 745 mmHg 80%
23:00 +15°C° 0 mm 0 m/s 746 mmHg 82%

9 Iulie, Joi

Timp Temperatura Precipitaţii Vânt Presiune Umiditate
00:00 +16°C° 0 mm 1 m/s 746 mmHg 82%
01:00 +16°C° 0 mm 1 m/s 746 mmHg 83%
02:00 +16°C° 0 mm 1 m/s 746 mmHg 83%
03:00 +16°C° 0 mm 1 m/s 746 mmHg 83%
04:00 +14°C° 0 mm 0 m/s 746 mmHg 83%
05:00 +14°C° 0 mm 0 m/s 746 mmHg 82%
06:00 +17°C° 0 mm 0 m/s 746 mmHg 75%
07:00 +19°C° 0 mm 0 m/s 747 mmHg 68%
08:00 +21°C° 0 mm 0 m/s 747 mmHg 61%
09:00 +23°C° 0 mm 0 m/s 747 mmHg 56%
10:00 +24°C° 0 mm 0 m/s 747 mmHg 50%
11:00 +28°C° 0 mm 1 m/s 747 mmHg 44%
12:00 +28°C° 0 mm 1 m/s 747 mmHg 43%
13:00 +28°C° 0 mm 1 m/s 747 mmHg 43%
14:00 +28°C° 0 mm 2 m/s 746 mmHg 42%
15:00 +28°C° 0 mm 2 m/s 746 mmHg 45%
16:00 +28°C° 0 mm 2 m/s 746 mmHg 47%
17:00 +28°C° 0 mm 2 m/s 746 mmHg 49%
18:00 +26°C° 0 mm 2 m/s 746 mmHg 55%
19:00 +24°C° 0 mm 2 m/s 746 mmHg 62%
20:00 +22°C° 0 mm 1 m/s 746 mmHg 68%
21:00 +21°C° 0 mm 1 m/s 746 mmHg 72%
22:00 +20°C° 0 mm 1 m/s 746 mmHg 77%
23:00 +19°C° 0 mm 1 m/s 747 mmHg 81%

10 Iulie, Vineri

Timp Temperatura Precipitaţii Vânt Presiune Umiditate
00:00 +19°C° 0 mm 1 m/s 746 mmHg 82%
01:00 +19°C° 0 mm 1 m/s 746 mmHg 84%
02:00 +18°C° 0 mm 1 m/s 746 mmHg 85%
03:00 +18°C° 0 mm 1 m/s 746 mmHg 85%
04:00 +18°C° 0 mm 1 m/s 746 mmHg 86%
05:00 +18°C° 0 mm 1 m/s 746 mmHg 86%
06:00 +20°C° 0 mm 1 m/s 747 mmHg 78%
07:00 +21°C° 0 mm 2 m/s 747 mmHg 70%
08:00 +24°C° 0 mm 2 m/s 747 mmHg 62%
09:00 +25°C° 0 mm 3 m/s 747 mmHg 59%
10:00 +26°C° 0 mm 4 m/s 747 mmHg 56%
11:00 +28°C° 0 mm 4 m/s 747 mmHg 53%
12:00 +28°C° 0 mm 4 m/s 747 mmHg 53%
13:00 +29°C° 0 mm 4 m/s 746 mmHg 52%
14:00 +29°C° 0 mm 5 m/s 746 mmHg 51%
15:00 +28°C° 0 mm 5 m/s 746 mmHg 54%
16:00 +28°C° 0 mm 4 m/s 746 mmHg 56%
17:00 +27°C° 0 mm 4 m/s 746 mmHg 59%
18:00 +26°C° 0 mm 4 m/s 746 mmHg 65%
19:00 +24°C° 0 mm 3 m/s 746 mmHg 71%
20:00 +21°C° 0 mm 3 m/s 746 mmHg 77%
21:00 +20°C° 0 mm 2 m/s 746 mmHg 81%
22:00 +19°C° 0 mm 2 m/s 746 mmHg 85%
23:00 +19°C° 0 mm 1 m/s 746 mmHg 89%

11 Iulie, Sâmbătă

Timp Temperatura Precipitaţii Vânt Presiune Umiditate
00:00 +19°C° 0 mm 1 m/s 746 mmHg 90%
01:00 +19°C° 0 mm 1 m/s 745 mmHg 91%
02:00 +18°C° 0 mm 1 m/s 745 mmHg 92%
03:00 +18°C° 0 mm 1 m/s 745 mmHg 92%
04:00 +18°C° 0 mm 1 m/s 745 mmHg 92%
05:00 +18°C° 0 mm 1 m/s 745 mmHg 92%
06:00 +20°C° 0 mm 1 m/s 745 mmHg 86%
07:00 +21°C° 0 mm 2 m/s 745 mmHg 79%
08:00 +23°C° 0 mm 2 m/s 745 mmHg 72%
09:00 +25°C° 0 mm 2 m/s 745 mmHg 66%
10:00 +26°C° 0 mm 3 m/s 745 mmHg 60%
11:00 +28°C° 0 mm 3 m/s 745 mmHg 53%
12:00 +28°C° 0 mm 3 m/s 744 mmHg 50%
13:00 +29°C° 0 mm 3 m/s 744 mmHg 48%
14:00 +30°C° 0 mm 3 m/s 744 mmHg 45%
15:00 +29°C° 0 mm 3 m/s 743 mmHg 48%
16:00 +29°C° 0 mm 3 m/s 743 mmHg 50%
17:00 +29°C° 0 mm 3 m/s 743 mmHg 52%
18:00 +26°C° 0 mm 3 m/s 743 mmHg 61%
19:00 +24°C° 0 mm 3 m/s 743 mmHg 69%
20:00 +21°C° 0 mm 2 m/s 743 mmHg 77%
21:00 +20°C° 0 mm 2 m/s 743 mmHg 81%
22:00 +20°C° 0 mm 1 m/s 743 mmHg 84%
23:00 +20°C° 0 mm 1 m/s 744 mmHg 88%
Arată mai mult